| time (UTC) | temp C | wind direction | speed KPH | gust KPH | rain 1hr cm | rain 24hr cm | rain mn cm | humidity % | barometer mb |
| 20260505153027 | 23 | 227 | 9.7 | 25.7 | 0.00 | 0.00 | 0.00 | 50 | 1016.4 |
| 20260505152511 | 23 | 219 | 11.3 | 33.8 | 0.00 | 0.00 | 0.00 | 52 | 1016.4 |
| 20260505152013 | 23 | 239 | 17.7 | 33.8 | 0.00 | 0.00 | 0.00 | 50 | 1016.4 |
| 20260505151534 | 23 | 165 | 14.5 | 22.5 | 0.00 | 0.00 | 0.00 | 52 | 1016.6 |
| 20260505151010 | 23 | 175 | 8.0 | 22.5 | 0.00 | 0.00 | 0.00 | 52 | 1016.6 |
| 20260505150511 | 23 | 217 | 11.3 | 32.2 | 0.00 | 0.00 | 0.00 | 52 | 1016.5 |
| 20260505140510 | 21 | 252 | 12.9 | 29.0 | 0.00 | 0.00 | 0.00 | 57 | 1016.7 |
| 20260505125011 | 17 | 262 | 11.3 | 22.5 | 0.00 | 0.00 | 0.00 | 66 | 1017.0 |
| 20260505124540 | 17 | 169 | 11.3 | 24.1 | 0.00 | 0.00 | 0.00 | 66 | 1017.0 |
| 20260505124012 | 17 | 207 | 8.0 | 24.1 | 0.00 | 0.00 | 0.00 | 67 | 1016.9 |
| 20260505123512 | 17 | 220 | 11.3 | 24.1 | 0.00 | 0.00 | 0.00 | 67 | 1016.7 |
| 20260505123030 | 17 | 234 | 9.7 | 24.1 | 0.00 | 0.00 | 0.00 | 68 | 1016.7 |
| 20260505122512 | 17 | 257 | 12.9 | 24.1 | 0.00 | 0.00 | 0.00 | 68 | 1016.6 |
| 20260505122012 | 17 | 251 | 9.7 | 22.5 | 0.00 | 0.00 | 0.00 | 69 | 1016.7 |
| 20260505121554 | 16 | 223 | 9.7 | 22.5 | 0.00 | 0.00 | 0.00 | 70 | 1016.5 |
| 20260505121013 | 16 | 244 | 11.3 | 20.9 | 0.00 | 0.00 | 0.00 | 70 | 1016.5 |
| 20260505120510 | 16 | 270 | 12.9 | 20.9 | 0.00 | 0.00 | 0.00 | 70 | 1016.4 |
| 20260505120027 | 16 | 269 | 9.7 | 19.3 | 0.00 | 0.00 | 0.00 | 72 | 1016.5 |
| 20260505115512 | 16 | 243 | 11.3 | 19.3 | 0.00 | 0.00 | 0.00 | 72 | 1016.4 |
| 20260505115010 | 16 | 290 | 6.4 | 20.9 | 0.00 | 0.00 | 0.00 | 73 | 1016.4 |
| 20260505114533 | 16 | 227 | 8.0 | 20.9 | 0.00 | 0.00 | 0.00 | 72 | 1016.4 |
| 20260505114009 | 16 | 244 | 4.8 | 19.3 | 0.00 | 0.00 | 0.00 | 74 | 1016.4 |
| 20260505113513 | 15 | 265 | 6.4 | 20.9 | 0.00 | 0.00 | 0.00 | 73 | 1016.3 |
| 20260505113031 | 15 | 223 | 8.0 | 20.9 | 0.00 | 0.00 | 0.00 | 73 | 1016.3 |
| 20260505112511 | 15 | 182 | 8.0 | 17.7 | 0.00 | 0.00 | 0.00 | 73 | 1016.4 |
| 20260505112011 | 15 | 244 | 4.8 | 17.7 | 0.00 | 0.00 | 0.00 | 74 | 1016.3 |
| 20260505111536 | 15 | 230 | 9.7 | 17.7 | 0.00 | 0.00 | 0.00 | 74 | 1016.3 |
| 20260505111011 | 15 | 240 | 3.2 | 14.5 | 0.00 | 0.00 | 0.00 | 75 | 1016.2 |
| 20260505110511 | 15 | 219 | 6.4 | 14.5 | 0.00 | 0.00 | 0.00 | 73 | 1016.2 |
| 20260505102010 | 15 | 226 | 4.8 | 16.1 | 0.00 | 0.00 | 0.00 | 74 | 1015.6 |
| 20260505101528 | 15 | 252 | 4.8 | 16.1 | 0.00 | 0.00 | 0.00 | 74 | 1015.5 |
| 20260505101010 | 15 | 214 | 8.0 | 14.5 | 0.00 | 0.00 | 0.00 | 73 | 1015.5 |
| 20260505100510 | 15 | 176 | 6.4 | 14.5 | 0.00 | 0.00 | 0.00 | 74 | 1015.5 |
| 20260505100036 | 15 | 135 | 3.2 | 17.7 | 0.00 | 0.00 | 0.00 | 74 | 1015.4 |
| 20260505095510 | 15 | 222 | 9.7 | 17.7 | 0.00 | 0.00 | 0.00 | 73 | 1015.4 |
| 20260505095015 | 15 | 154 | 6.4 | 20.9 | 0.00 | 0.00 | 0.00 | 73 | 1015.4 |
| 20260505094530 | 15 | 225 | 8.0 | 20.9 | 0.00 | 0.00 | 0.00 | 73 | 1015.2 |
| 20260505094010 | 15 | 228 | 8.0 | 19.3 | 0.00 | 0.00 | 0.00 | 73 | 1015.2 |
| 20260505093509 | 15 | 238 | 6.4 | 14.5 | 0.00 | 0.00 | 0.00 | 72 | 1015.3 |
| 20260505093031 | 15 | 215 | 6.4 | 19.3 | 0.00 | 0.00 | 0.00 | 72 | 1015.2 |
| 20260505092511 | 15 | 221 | 4.8 | 19.3 | 0.00 | 0.00 | 0.00 | 71 | 1015.1 |
| 20260505092011 | 16 | 257 | 6.4 | 16.1 | 0.00 | 0.00 | 0.00 | 70 | 1015.0 |
| 20260505091535 | 16 | 234 | 3.2 | 24.1 | 0.00 | 0.00 | 0.00 | 70 | 1015.2 |
| 20260505091010 | 16 | 146 | 4.8 | 24.1 | 0.00 | 0.00 | 0.00 | 70 | 1015.0 |
| 20260505090510 | 16 | 238 | 12.9 | 24.1 | 0.00 | 0.00 | 0.00 | 69 | 1015.0 |
| 20260505090028 | 16 | 220 | 9.7 | 19.3 | 0.00 | 0.00 | 0.00 | 69 | 1015.0 |
| 20260505085511 | 16 | 204 | 6.4 | 24.1 | 0.00 | 0.00 | 0.00 | 69 | 1015.2 |
| 20260505085015 | 16 | 226 | 9.7 | 24.1 | 0.00 | 0.00 | 0.00 | 69 | 1015.0 |
| 20260505084528 | 16 | 265 | 8.0 | 19.3 | 0.00 | 0.00 | 0.00 | 69 | 1015.2 |
| 20260505084010 | 16 | 204 | 9.7 | 20.9 | 0.00 | 0.00 | 0.00 | 68 | 1015.0 |
| 20260505083514 | 16 | 221 | 9.7 | 20.9 | 0.00 | 0.00 | 0.00 | 68 | 1014.9 |
| 20260505083041 | 16 | 207 | 11.3 | 20.9 | 0.00 | 0.00 | 0.00 | 68 | 1014.9 |
| 20260505082511 | 16 | 214 | 8.0 | 20.9 | 0.00 | 0.00 | 0.00 | 68 | 1014.9 |
| 20260505082009 | 16 | 165 | 4.8 | 20.9 | 0.00 | 0.00 | 0.00 | 68 | 1014.9 |
| 20260505081532 | 16 | 219 | 11.3 | 25.7 | 0.00 | 0.00 | 0.00 | 67 | 1014.7 |
| 20260505081010 | 16 | 259 | 14.5 | 27.4 | 0.00 | 0.00 | 0.00 | 67 | 1014.7 |
| 20260505080510 | 16 | 233 | 11.3 | 29.0 | 0.00 | 0.00 | 0.00 | 67 | 1014.8 |
| 20260505080043 | 16 | 272 | 16.1 | 29.0 | 0.00 | 0.00 | 0.00 | 67 | 1014.7 |
| 20260505075510 | 16 | 244 | 8.0 | 19.3 | 0.00 | 0.00 | 0.00 | 67 | 1014.8 |
| 20260505075008 | 16 | 196 | 9.7 | 24.1 | 0.00 | 0.00 | 0.00 | 67 | 1014.9 |
| 20260505074528 | 16 | 274 | 9.7 | 24.1 | 0.00 | 0.00 | 0.00 | 66 | 1014.7 |
| 20260505074010 | 16 | 257 | 12.9 | 24.1 | 0.00 | 0.00 | 0.00 | 66 | 1014.7 |
| 20260505073511 | 16 | 277 | 11.3 | 24.1 | 0.00 | 0.00 | 0.00 | 66 | 1014.8 |
| 20260505073031 | 16 | 202 | 11.3 | 24.1 | 0.00 | 0.00 | 0.00 | 66 | 1014.6 |
| 20260505072512 | 17 | 261 | 11.3 | 25.7 | 0.00 | 0.00 | 0.00 | 66 | 1014.6 |
| 20260505072012 | 17 | 216 | 14.5 | 25.7 | 0.00 | 0.00 | 0.00 | 66 | 1014.5 |
| 20260505071538 | 17 | 178 | 11.3 | 29.0 | 0.00 | 0.00 | 0.00 | 65 | 1014.5 |
| 20260505071013 | 17 | 183 | 11.3 | 29.0 | 0.00 | 0.00 | 0.00 | 65 | 1014.5 |
| 20260505070511 | 17 | 136 | 8.0 | 27.4 | 0.00 | 0.00 | 0.00 | 65 | 1014.3 |
| 20260505070031 | 17 | 236 | 9.7 | 27.4 | 0.00 | 0.00 | 0.00 | 65 | 1014.3 |
| 20260505065510 | 17 | 245 | 14.5 | 27.4 | 0.00 | 0.00 | 0.00 | 65 | 1014.3 |
| 20260505065014 | 17 | 222 | 9.7 | 24.1 | 0.00 | 0.00 | 0.00 | 64 | 1014.4 |
| 20260505064530 | 17 | 246 | 12.9 | 25.7 | 0.00 | 0.00 | 0.00 | 64 | 1014.4 |
| 20260505064011 | 17 | 224 | 11.3 | 32.2 | 0.00 | 0.00 | 0.00 | 64 | 1014.4 |
| 20260505063511 | 17 | 214 | 14.5 | 32.2 | 0.00 | 0.00 | 0.00 | 63 | 1014.4 |
| 20260505063042 | 17 | 193 | 12.9 | 24.1 | 0.00 | 0.00 | 0.00 | 63 | 1014.4 |
| 20260505062511 | 17 | 279 | 12.9 | 24.1 | 0.00 | 0.00 | 0.00 | 63 | 1014.4 |
| 20260505062013 | 17 | 256 | 12.9 | 30.6 | 0.00 | 0.00 | 0.00 | 63 | 1014.4 |
| 20260505061533 | 17 | 224 | 8.0 | 33.8 | 0.00 | 0.00 | 0.00 | 63 | 1014.4 |
| 20260505061009 | 17 | 265 | 12.9 | 33.8 | 0.00 | 0.00 | 0.00 | 63 | 1014.6 |
| 20260505060510 | 17 | 281 | 14.5 | 33.8 | 0.00 | 0.00 | 0.00 | 63 | 1014.5 |
| 20260505060027 | 17 | 247 | 12.9 | 24.1 | 0.00 | 0.00 | 0.00 | 63 | 1014.6 |
| 20260505055515 | 17 | 282 | 9.7 | 24.1 | 0.00 | 0.00 | 0.00 | 63 | 1014.6 |
| 20260505055016 | 17 | 219 | 9.7 | 22.5 | 0.00 | 0.00 | 0.00 | 63 | 1014.6 |
| 20260505054541 | 17 | 227 | 6.4 | 24.1 | 0.00 | 0.00 | 0.00 | 63 | 1014.7 |
| 20260505054015 | 17 | 229 | 12.9 | 24.1 | 0.00 | 0.00 | 0.00 | 63 | 1014.6 |
| 20260505053514 | 17 | 173 | 11.3 | 22.5 | 0.00 | 0.00 | 0.00 | 63 | 1014.8 |
| 20260505053030 | 17 | 239 | 11.3 | 24.1 | 0.00 | 0.00 | 0.00 | 63 | 1014.9 |
| 20260505052510 | 17 | 156 | 12.9 | 24.1 | 0.00 | 0.00 | 0.00 | 63 | 1014.9 |
| 20260505052011 | 17 | 192 | 8.0 | 22.5 | 0.00 | 0.00 | 0.00 | 63 | 1014.9 |
| 20260505051538 | 17 | 225 | 8.0 | 22.5 | 0.00 | 0.00 | 0.00 | 63 | 1014.8 |
| 20260505051009 | 18 | 285 | 8.0 | 22.5 | 0.00 | 0.00 | 0.00 | 62 | 1014.8 |
| 20260505050514 | 17 | 273 | 11.3 | 19.3 | 0.00 | 0.00 | 0.00 | 62 | 1014.8 |
| 20260505041543 | 18 | 175 | 17.7 | 30.6 | 0.00 | 0.00 | 0.00 | 62 | 1014.9 |
| 20260505041009 | 18 | 235 | 9.7 | 25.7 | 0.00 | 0.00 | 0.00 | 62 | 1014.9 |
| 20260505040509 | 18 | 220 | 14.5 | 25.7 | 0.00 | 0.00 | 0.00 | 62 | 1014.8 |
| 20260505040030 | 18 | 236 | 14.5 | 22.5 | 0.00 | 0.00 | 0.00 | 62 | 1014.9 |
| 20260505035510 | 18 | 219 | 12.9 | 32.2 | 0.00 | 0.00 | 0.00 | 62 | 1014.8 |
| 20260505035011 | 18 | 224 | 11.3 | 32.2 | 0.00 | 0.00 | 0.00 | 62 | 1014.8 |
| 20260505034530 | 18 | 238 | 12.9 | 32.2 | 0.00 | 0.00 | 0.00 | 61 | 1014.7 |
| 20260505034010 | 18 | 177 | 19.3 | 32.2 | 0.00 | 0.00 | 0.00 | 61 | 1014.7 |
| 20260505033511 | 18 | 202 | 16.1 | 30.6 | 0.00 | 0.00 | 0.00 | 61 | 1014.7 |
| 20260505033028 | 18 | 176 | 17.7 | 30.6 | 0.00 | 0.00 | 0.00 | 61 | 1014.7 |
| 20260505032513 | 18 | 226 | 12.9 | 30.6 | 0.00 | 0.00 | 0.00 | 61 | 1014.7 |
| 20260505032011 | 18 | 264 | 12.9 | 35.4 | 0.00 | 0.00 | 0.00 | 62 | 1014.6 |
| 20260505031532 | 18 | 171 | 16.1 | 35.4 | 0.00 | 0.00 | 0.00 | 62 | 1014.5 |
| 20260505031011 | 18 | 175 | 12.9 | 25.7 | 0.00 | 0.00 | 0.00 | 62 | 1014.6 |
| 20260505030512 | 18 | 232 | 14.5 | 25.7 | 0.00 | 0.00 | 0.00 | 62 | 1014.6 |
| 20260505030028 | 18 | 221 | 11.3 | 35.4 | 0.00 | 0.00 | 0.00 | 62 | 1014.6 |
| 20260505025514 | 18 | 206 | 11.3 | 35.4 | 0.00 | 0.00 | 0.00 | 62 | 1014.7 |
| 20260505025010 | 18 | 182 | 11.3 | 32.2 | 0.00 | 0.00 | 0.00 | 62 | 1014.8 |
| 20260505024529 | 18 | 168 | 14.5 | 32.2 | 0.00 | 0.00 | 0.00 | 62 | 1014.8 |
| 20260505024012 | 18 | 221 | 11.3 | 32.2 | 0.00 | 0.00 | 0.00 | 62 | 1014.8 |
| 20260505023509 | 19 | 178 | 12.9 | 33.8 | 0.00 | 0.00 | 0.00 | 62 | 1014.8 |
| 20260505023031 | 19 | 179 | 17.7 | 33.8 | 0.00 | 0.00 | 0.00 | 62 | 1014.7 |
| 20260505022509 | 19 | 186 | 14.5 | 33.8 | 0.00 | 0.00 | 0.00 | 62 | 1014.5 |
| 20260505022010 | 19 | 235 | 14.5 | 30.6 | 0.00 | 0.00 | 0.00 | 63 | 1014.6 |
| 20260505021528 | 19 | 215 | 14.5 | 27.4 | 0.00 | 0.00 | 0.00 | 63 | 1014.5 |
| 20260505021009 | 19 | 214 | 12.9 | 30.6 | 0.00 | 0.00 | 0.00 | 62 | 1014.5 |
| 20260505020510 | 19 | 196 | 11.3 | 30.6 | 0.00 | 0.00 | 0.00 | 62 | 1014.6 |
| 20260505020033 | 19 | 175 | 14.5 | 30.6 | 0.00 | 0.00 | 0.00 | 62 | 1014.7 |
| 20260505015511 | 19 | 205 | 16.1 | 30.6 | 0.00 | 0.00 | 0.00 | 62 | 1014.7 |
| 20260505015013 | 19 | 177 | 12.9 | 29.0 | 0.00 | 0.00 | 0.00 | 62 | 1014.5 |
| 20260505014531 | 19 | 198 | 12.9 | 29.0 | 0.00 | 0.00 | 0.00 | 62 | 1014.6 |
| 20260505014010 | 20 | 126 | 12.9 | 33.8 | 0.00 | 0.00 | 0.00 | 62 | 1014.5 |
| 20260505013509 | 20 | 214 | 14.5 | 33.8 | 0.00 | 0.00 | 0.00 | 62 | 1014.5 |
| 20260505013028 | 20 | 186 | 12.9 | 25.7 | 0.00 | 0.00 | 0.00 | 62 | 1014.5 |
| 20260505012509 | 20 | 186 | 11.3 | 27.4 | 0.00 | 0.00 | 0.00 | 61 | 1014.3 |
| 20260505012010 | 20 | 211 | 14.5 | 27.4 | 0.00 | 0.00 | 0.00 | 61 | 1014.4 |
| 20260505011533 | 20 | 127 | 12.9 | 27.4 | 0.00 | 0.00 | 0.00 | 61 | 1014.3 |
| 20260505011009 | 20 | 211 | 9.7 | 25.7 | 0.00 | 0.00 | 0.00 | 61 | 1014.2 |
| 20260505010510 | 20 | 236 | 9.7 | 29.0 | 0.00 | 0.00 | 0.00 | 61 | 1014.0 |
| 20260505010032 | 20 | 151 | 14.5 | 29.0 | 0.00 | 0.00 | 0.00 | 60 | 1014.0 |
| 20260505005511 | 20 | 159 | 11.3 | 24.1 | 0.00 | 0.00 | 0.00 | 60 | 1013.8 |
| 20260505005014 | 20 | 171 | 9.7 | 33.8 | 0.00 | 0.00 | 0.00 | 60 | 1013.8 |
| 20260505004531 | 20 | 209 | 16.1 | 33.8 | 0.00 | 0.00 | 0.00 | 60 | 1013.7 |
| 20260505004008 | 20 | 202 | 9.7 | 25.7 | 0.00 | 0.00 | 0.00 | 59 | 1013.6 |
| 20260505003512 | 20 | 170 | 11.3 | 22.5 | 0.00 | 0.00 | 0.00 | 59 | 1013.6 |
| 20260505003031 | 20 | 208 | 11.3 | 22.5 | 0.00 | 0.00 | 0.00 | 58 | 1013.7 |
| 20260505002511 | 21 | 147 | 11.3 | 25.7 | 0.00 | 0.00 | 0.00 | 58 | 1013.6 |
| 20260505002011 | 21 | 178 | 12.9 | 33.8 | 0.00 | 0.00 | 0.00 | 58 | 1013.5 |
| 20260505001533 | 21 | 201 | 11.3 | 33.8 | 0.00 | 0.00 | 0.00 | 57 | 1013.4 |
| 20260505001012 | 21 | 154 | 17.7 | 32.2 | 0.00 | 0.00 | 0.00 | 57 | 1013.4 |
| 20260505000513 | 21 | 151 | 14.5 | 29.0 | 0.00 | 0.00 | 0.00 | 56 | 1013.3 |
| 20260505000037 | 21 | 163 | 9.7 | 24.1 | 0.00 | 0.00 | 0.00 | 56 | 1013.4 |
| 20260504235512 | 21 | 191 | 11.3 | 27.4 | 0.00 | 0.00 | 0.00 | 55 | 1013.3 |
| 20260504235012 | 21 | 152 | 14.5 | 27.4 | 0.00 | 0.00 | 0.00 | 55 | 1013.3 |
| 20260504234528 | 21 | 198 | 14.5 | 30.6 | 0.00 | 0.00 | 0.00 | 54 | 1013.2 |
| 20260504234013 | 22 | 157 | 12.9 | 30.6 | 0.00 | 0.00 | 0.00 | 53 | 1013.1 |
| 20260504233512 | 22 | 147 | 14.5 | 27.4 | 0.00 | 0.00 | 0.00 | 52 | 1012.8 |
| 20260504233028 | 22 | 222 | 8.0 | 33.8 | 0.00 | 0.00 | 0.00 | 50 | 1012.8 |
| 20260504232513 | 22 | 205 | 14.5 | 38.6 | 0.00 | 0.00 | 0.00 | 50 | 1012.8 |
| 20260504232013 | 23 | 209 | 17.7 | 38.6 | 0.00 | 0.00 | 0.00 | 47 | 1012.7 |
| 20260504231533 | 23 | 116 | 12.9 | 27.4 | 0.00 | 0.00 | 0.00 | 44 | 1012.8 |
| 20260504231011 | 23 | 303 | 12.9 | 22.5 | 0.00 | 0.00 | 0.00 | 37 | 1012.4 |
| 20260504230512 | 23 | 164 | 11.3 | 32.2 | 0.00 | 0.00 | 0.00 | 36 | 1012.6 |
| 20260504230031 | 23 | 135 | 16.1 | 32.2 | 0.00 | 0.00 | 0.00 | 36 | 1012.7 |
| 20260504225512 | 24 | 165 | 12.9 | 32.2 | 0.00 | 0.00 | 0.00 | 36 | 1012.7 |
| 20260504225012 | 24 | 275 | 16.1 | 32.2 | 0.00 | 0.00 | 0.00 | 36 | 1012.8 |
| 20260504224532 | 24 | 248 | 14.5 | 30.6 | 0.00 | 0.00 | 0.00 | 35 | 1012.7 |
| 20260504224013 | 25 | 233 | 14.5 | 27.4 | 0.00 | 0.00 | 0.00 | 36 | 1012.6 |
| 20260504223512 | 25 | 246 | 11.3 | 33.8 | 0.00 | 0.00 | 0.00 | 35 | 1012.7 |
| 20260504223031 | 25 | 248 | 8.0 | 35.4 | 0.00 | 0.00 | 0.00 | 36 | 1012.8 |
| 20260504222513 | 25 | 265 | 19.3 | 35.4 | 0.00 | 0.00 | 0.00 | 35 | 1012.5 |
| 20260504222011 | 25 | 327 | 12.9 | 33.8 | 0.00 | 0.00 | 0.00 | 34 | 1012.6 |
| 20260504221528 | 25 | 278 | 16.1 | 38.6 | 0.00 | 0.00 | 0.00 | 35 | 1012.7 |
| 20260504221011 | 25 | 277 | 16.1 | 38.6 | 0.00 | 0.00 | 0.00 | 34 | 1012.6 |
| 20260504220512 | 25 | 233 | 19.3 | 43.5 | 0.00 | 0.00 | 0.00 | 35 | 1012.6 |
| 20260504220032 | 25 | 191 | 19.3 | 43.5 | 0.00 | 0.00 | 0.00 | 34 | 1012.7 |
| 20260504215517 | 25 | 247 | 17.7 | 30.6 | 0.00 | 0.00 | 0.00 | 34 | 1012.6 |
| 20260504215013 | 25 | 252 | 16.1 | 29.0 | 0.00 | 0.00 | 0.00 | 34 | 1012.7 |
| 20260504214539 | 25 | 235 | 9.7 | 32.2 | 0.00 | 0.00 | 0.00 | 35 | 1012.7 |
| 20260504214014 | 25 | 242 | 20.9 | 35.4 | 0.00 | 0.00 | 0.00 | 34 | 1012.9 |
| 20260504213513 | 25 | 221 | 17.7 | 35.4 | 0.00 | 0.00 | 0.00 | 34 | 1012.9 |
| 20260504213031 | 25 | 260 | 14.5 | 35.4 | 0.00 | 0.00 | 0.00 | 35 | 1012.8 |
| 20260504212513 | 25 | 270 | 22.5 | 33.8 | 0.00 | 0.00 | 0.00 | 34 | 1012.9 |
| 20260504212012 | 25 | 230 | 16.1 | 38.6 | 0.00 | 0.00 | 0.00 | 34 | 1013.0 |
| 20260504211530 | 25 | 271 | 17.7 | 38.6 | 0.00 | 0.00 | 0.00 | 34 | 1012.9 |
| 20260504211012 | 25 | 257 | 12.9 | 27.4 | 0.00 | 0.00 | 0.00 | 34 | 1012.9 |
| 20260504210517 | 25 | 211 | 12.9 | 27.4 | 0.00 | 0.00 | 0.00 | 34 | 1012.9 |
| 20260504210030 | 25 | 232 | 11.3 | 29.0 | 0.00 | 0.00 | 0.00 | 35 | 1013.0 |
| 20260504205514 | 25 | 221 | 17.7 | 46.7 | 0.00 | 0.00 | 0.00 | 34 | 1013.0 |
| 20260504205014 | 25 | 215 | 22.5 | 46.7 | 0.00 | 0.00 | 0.00 | 34 | 1013.0 |
| 20260504204529 | 25 | 283 | 16.1 | 35.4 | 0.00 | 0.00 | 0.00 | 34 | 1013.0 |
| 20260504204012 | 25 | 132 | 17.7 | 27.4 | 0.00 | 0.00 | 0.00 | 34 | 1012.9 |
| 20260504203513 | 25 | 240 | 14.5 | 25.7 | 0.00 | 0.00 | 0.00 | 34 | 1013.0 |
| 20260504203034 | 25 | 155 | 9.7 | 32.2 | 0.00 | 0.00 | 0.00 | 34 | 1013.0 |
| 20260504202511 | 25 | 136 | 16.1 | 33.8 | 0.00 | 0.00 | 0.00 | 34 | 1013.0 |
| 20260504202013 | 25 | 221 | 16.1 | 33.8 | 0.00 | 0.00 | 0.00 | 34 | 1013.0 |
| 20260504201529 | 25 | 227 | 9.7 | 30.6 | 0.00 | 0.00 | 0.00 | 34 | 1013.0 |
| 20260504201013 | 25 | 142 | 12.9 | 30.6 | 0.00 | 0.00 | 0.00 | 35 | 1013.2 |
| 20260504200511 | 24 | 198 | 16.1 | 35.4 | 0.00 | 0.00 | 0.00 | 36 | 1013.0 |
| 20260504200033 | 24 | 242 | 19.3 | 35.4 | 0.00 | 0.00 | 0.00 | 35 | 1013.3 |
| 20260504195512 | 24 | 282 | 17.7 | 35.4 | 0.00 | 0.00 | 0.00 | 35 | 1013.3 |
| 20260504195013 | 24 | 222 | 12.9 | 41.8 | 0.00 | 0.00 | 0.00 | 35 | 1013.2 |
| 20260504194528 | 24 | 249 | 20.9 | 41.8 | 0.00 | 0.00 | 0.00 | 33 | 1013.2 |
| 20260504194010 | 24 | 274 | 16.1 | 35.4 | 0.00 | 0.00 | 0.00 | 35 | 1013.2 |
| 20260504193519 | 24 | 271 | 14.5 | 33.8 | 0.00 | 0.00 | 0.00 | 35 | 1013.3 |
| 20260504193030 | 24 | 273 | 14.5 | 33.8 | 0.00 | 0.00 | 0.00 | 34 | 1013.5 |
| 20260504192516 | 24 | 270 | 14.5 | 27.4 | 0.00 | 0.00 | 0.00 | 35 | 1013.5 |
| 20260504192013 | 24 | 267 | 14.5 | 25.7 | 0.00 | 0.00 | 0.00 | 36 | 1013.6 |
| 20260504191528 | 24 | 265 | 14.5 | 27.4 | 0.00 | 0.00 | 0.00 | 35 | 1013.7 |
| 20260504191018 | 24 | 232 | 17.7 | 27.4 | 0.00 | 0.00 | 0.00 | 36 | 1013.8 |
| 20260504190517 | 24 | 275 | 14.5 | 32.2 | 0.00 | 0.00 | 0.00 | 34 | 1013.8 |
| 20260504190031 | 24 | 164 | 16.1 | 40.2 | 0.00 | 0.00 | 0.00 | 35 | 1013.8 |
| 20260504185510 | 24 | 163 | 9.7 | 40.2 | 0.00 | 0.00 | 0.00 | 37 | 1013.7 |
| 20260504185014 | 24 | 252 | 8.0 | 32.2 | 0.00 | 0.00 | 0.00 | 37 | 1013.8 |
| 20260504184535 | 23 | 180 | 16.1 | 35.4 | 0.00 | 0.00 | 0.00 | 37 | 1014.0 |
| 20260504184012 | 23 | 277 | 19.3 | 35.4 | 0.00 | 0.00 | 0.00 | 36 | 1014.0 |
| 20260504183514 | 23 | 287 | 9.7 | 33.8 | 0.00 | 0.00 | 0.00 | 38 | 1014.0 |
| 20260504183035 | 23 | 273 | 14.5 | 27.4 | 0.00 | 0.00 | 0.00 | 38 | 1014.2 |
| 20260504182513 | 23 | 280 | 12.9 | 25.7 | 0.00 | 0.00 | 0.00 | 38 | 1014.3 |
| 20260504182018 | 23 | 239 | 12.9 | 45.1 | 0.00 | 0.00 | 0.00 | 38 | 1014.4 |
| 20260504181528 | 23 | 347 | 12.9 | 45.1 | 0.00 | 0.00 | 0.00 | 38 | 1014.5 |
| 20260504181014 | 23 | 275 | 12.9 | 29.0 | 0.00 | 0.00 | 0.00 | 39 | 1014.6 |
| 20260504180514 | 23 | 323 | 14.5 | 29.0 | 0.00 | 0.00 | 0.00 | 39 | 1014.7 |
| 20260504180028 | 23 | 265 | 14.5 | 29.0 | 0.00 | 0.00 | 0.00 | 40 | 1014.7 |
| 20260504175511 | 22 | 303 | 16.1 | 29.0 | 0.00 | 0.00 | 0.00 | 40 | 1014.8 |
| 20260504175012 | 23 | 267 | 16.1 | 32.2 | 0.00 | 0.00 | 0.00 | 39 | 1014.8 |
| 20260504174530 | 23 | 124 | 9.7 | 32.2 | 0.00 | 0.00 | 0.00 | 41 | 1014.7 |
| 20260504174014 | 23 | 253 | 14.5 | 27.4 | 0.00 | 0.00 | 0.00 | 40 | 1014.7 |
| 20260504173514 | 23 | 250 | 11.3 | 30.6 | 0.00 | 0.00 | 0.00 | 41 | 1014.8 |
| 20260504173030 | 23 | 279 | 12.9 | 32.2 | 0.00 | 0.00 | 0.00 | 38 | 1014.7 |
| 20260504172516 | 22 | 267 | 20.9 | 32.2 | 0.00 | 0.00 | 0.00 | 39 | 1014.7 |
| 20260504172013 | 22 | 173 | 16.1 | 35.4 | 0.00 | 0.00 | 0.00 | 39 | 1015.1 |
| 20260504171528 | 22 | 277 | 14.5 | 35.4 | 0.00 | 0.00 | 0.00 | 42 | 1015.1 |
| 20260504171012 | 22 | 280 | 19.3 | 25.7 | 0.00 | 0.00 | 0.00 | 43 | 1015.0 |
| 20260504170510 | 22 | 292 | 14.5 | 27.4 | 0.00 | 0.00 | 0.00 | 41 | 1015.1 |